[[{"header":{"parameterUnit":"m.s-1","parameterCategory":1,"la1":30.2991,"la2":30.254,"lo1":-89.0895,"lo2":-89.0444,"dy":0.0017,"dx":0.0017,"nx":28,"ny":28,"refTime":"2025-02-25T03:00:00:Z","depth":0,"parameterNumber":2,"parameterNumberName":"U-component_of_WINDS"},"data":[0,0,0,0,0,0,0,0,0,0,0,0,0,0,0,0,0,0,0,0,0,0,0,0,0,0,0,0,0,0,0,0,0,0,0,0,0,0,0,0,0,0,0,0,0,0,0,0,0,0,0,0,0,0,0,0,0,0,1.1485,1.1485,0,1.1513,1.1513,1.1514,1.1523,1.1523,1.1523,1.1522,1.1551,1.1552,1.1552,0,0,0,0,0,0,0,0,0,0,0,0,0,1.1439,1.144,1.1485,1.1485,1.1485,1.1513,1.1513,1.1514,1.1523,1.1523,1.1522,1.1522,1.155,1.1551,1.1552,0,0,0,0,0,0,0,0,0,0,0,0,0,1.1462,1.144,1.1485,1.1493,1.1494,1.1513,1.1513,1.1514,1.1523,1.1523,1.1522,1.1522,1.155,1.1551,1.1553,1.1564,0,0,1.1557,1.1557,0,0,0,0,0,0,0,0,1.1461,1.1464,1.1492,1.1493,1.1494,1.1514,1.1508,1.1531,1.1523,1.1512,1.1522,1.1522,1.1539,1.1541,1.1547,1.1566,1.1567,1.1557,1.1558,1.1558,1.1558,0,0,0,0,0,0,0,1.1459,1.1463,1.1496,1.1492,1.1493,1.1496,1.1499,1.1512,1.1526,1.1513,1.1514,1.1517,1.1539,1.1545,1.1547,1.1567,1.1557,1.1558,1.1559,1.1559,1.1599,1.1599,0,0,0,0,0,0,1.1456,1.1461,1.1495,1.1497,1.1477,1.1497,1.15,1.1508,1.1526,1.1528,1.1517,1.1517,1.1543,1.1546,1.1548,1.1564,1.1558,1.1559,1.156,1.1599,1.1599,1.1599,0,0,0,0,0,0,1.1455,1.1459,1.1494,1.1479,1.1484,1.1498,1.1506,1.1508,1.1515,1.1529,1.1532,1.1521,1.1543,1.1546,1.1561,1.1565,1.156,1.1561,1.1598,1.1599,1.1599,1.1595,0,0,0,0,0,0,1.1454,1.1459,1.1463,1.1479,1.1485,1.1505,1.1506,1.1509,1.1517,1.1517,1.1533,1.1535,1.1543,1.1559,1.1562,1.1567,1.1562,1.1598,1.1598,1.1599,1.1594,1.1595,1.1595,0,0,0,0,0,1.1452,1.146,1.1463,1.1467,1.149,1.1506,1.1509,1.1518,1.1517,1.1522,1.1531,1.1535,1.1564,1.156,1.1564,1.1569,1.1598,1.1598,1.1599,1.1594,1.1595,1.1595,0,0,0,0,0,0,1.1443,1.1462,1.1466,1.148,1.1491,1.1507,1.1513,1.1518,1.1529,1.1529,1.154,1.1543,1.1557,1.1564,1.1559,1.1582,1.1581,1.1583,1.1576,1.1577,1.1577,1.1575,1.1563,0,0,0,0,0,1.1443,1.1454,1.147,1.1481,1.1486,1.1499,1.1506,1.1512,1.1524,1.1529,1.1539,1.1551,1.1563,1.157,1.1582,1.1596,1.16,1.1602,1.1602,1.1602,1.1603,1.1612,1.1613,1.1601,1.1601,1.1601,0,0,1.1443,1.1455,1.1461,1.1479,1.1489,1.15,1.1503,1.1514,1.1523,1.1531,1.1545,1.1553,1.1567,1.1581,1.1588,1.1588,1.1607,1.1603,1.1603,1.1604,1.1613,1.1614,1.1615,1.1602,1.1602,1.1601,0,0,1.1448,1.1458,1.1468,1.1478,1.1493,1.1501,1.1504,1.1519,1.1525,1.154,1.1546,1.1557,1.1577,1.1587,1.1594,1.1604,1.1608,1.1608,1.161,1.1618,1.1619,1.162,1.1624,1.1625,1.1609,1.1609,1.1609,0,1.1445,1.1462,1.1473,1.1484,1.1492,1.1501,1.1511,1.152,1.1538,1.1544,1.1544,1.157,1.158,1.1597,1.1599,1.1605,1.1609,1.1606,1.1618,1.1619,1.162,1.1624,1.1625,1.1609,1.1609,1.1609,1.1609,0,1.1459,1.1471,1.1477,1.1495,1.1504,1.1515,1.1527,1.1535,1.1541,1.155,1.1565,1.1577,1.1592,1.1596,1.1602,1.1615,1.1614,1.1616,1.1615,1.1621,1.1625,1.1626,1.1609,1.1609,1.1609,1.1609,0,0,1.1458,1.1482,1.1484,1.1493,1.151,1.152,1.1532,1.1546,1.1553,1.1566,1.1576,1.1594,1.1596,1.1604,1.1611,1.1619,1.1627,1.162,1.162,1.1621,1.1642,1.1641,1.1642,1.163,1.163,1.163,1.1641,0,1.1465,1.1487,1.1497,1.1514,1.1525,1.1534,1.1545,1.1557,1.1565,1.1577,1.1586,1.1599,1.16,1.1606,1.1614,1.1624,1.1631,1.1623,1.164,1.164,1.1635,1.1644,1.1642,1.1652,1.1643,1.1643,1.1643,0,1.1476,1.1489,1.1507,1.1525,1.153,1.1539,1.1554,1.1564,1.1579,1.1585,1.1595,1.1602,1.1615,1.1614,1.1633,1.1627,1.1635,1.1641,1.1642,1.1643,1.1642,1.1646,1.1655,1.1656,1.1646,1.1645,1.1645,0,1.1474,1.1496,1.151,1.1517,1.1537,1.1544,1.1552,1.1567,1.1575,1.1588,1.1594,1.1609,1.1617,1.1628,1.1639,1.1637,1.1657,1.1656,1.1662,1.1662,1.1665,1.1665,1.1676,1.1671,1.1671,1.167,1.167,0,1.1481,1.1492,1.151,1.1518,1.1531,1.1543,1.1555,1.1565,1.1577,1.1588,1.1597,1.1607,1.1621,1.1633,1.1641,1.1656,1.1659,1.1665,1.1667,1.1664,1.1663,1.1668,1.1668,1.1671,1.1671,1.1671,1.1671,0,1.148,1.1493,1.1509,1.1527,1.1532,1.154,1.1556,1.1565,1.1575,1.1589,1.1592,1.1608,1.1622,1.1634,1.1653,1.1659,1.1675,1.1677,1.167,1.1671,1.1676,1.1675,1.169,1.1693,1.1686,1.1686,1.1686,0,1.1484,1.1492,1.1512,1.152,1.1529,1.1541,1.1551,1.1563,1.1572,1.159,1.1597,1.1612,1.1625,1.1648,1.1661,1.1676,1.1679,1.1683,1.1681,1.1678,1.1679,1.1678,1.1679,1.1683,1.1683,1.1683,1.1683,0,1.1488,1.1494,1.1507,1.1523,1.1533,1.1546,1.1559,1.1565,1.158,1.159,1.1605,1.1615,1.1635,1.1651,1.1667,1.1677,1.1682,1.1684,1.1686,1.1683,1.1678,1.1681,1.167,1.1683,1.1683,1.1683,1.1683,1.1683,1.149,1.1499,1.1514,1.1528,1.1539,1.1551,1.1561,1.1572,1.1585,1.1603,1.1609,1.1625,1.164,1.1663,1.1673,1.1686,1.1686,1.1689,1.169,1.169,1.169,1.1677,1.1689,1.1689,1.1689,1.1689,1.1689,0,1.1495,1.1506,1.1519,1.1537,1.1549,1.1554,1.1569,1.1578,1.1592,1.1605,1.1618,1.1636,1.1651,1.1666,1.1682,1.169,1.1693,1.1693,1.1693,1.1695,1.1688,1.1685,1.1691,1.1691,1.1691,1.1691,1.1691,1.1691,1.1499,1.1514,1.1522,1.1543,1.1553,1.1569,1.1577,1.1589,1.16,1.1619,1.1632,1.1642,1.1656,1.1674,1.1688,1.1692,1.1698,1.1697,1.1702,1.1696,1.1695,1.1695,1.1692,1.1699,1.1699,1.1707,1.1708,1.1708]},{"header":{"parameterUnit":"m.s-1","parameterCategory":1,"la1":30.2991,"la2":30.254,"lo1":-89.0895,"lo2":-89.0444,"dy":0.0017,"dx":0.0017,"nx":28,"ny":28,"refTime":"2025-02-25T03:00:00:Z","depth":0,"parameterNumber":3,"parameterNumberName":"V-component_of_WINDS"},"data":[0,0,0,0,0,0,0,0,0,0,0,0,0,0,0,0,0,0,0,0,0,0,0,0,0,0,0,0,0,0,0,0,0,0,0,0,0,0,0,0,0,0,0,0,0,0,0,0,0,0,0,0,0,0,0,0,0,0,-1.9276,-1.9277,0,-1.9387,-1.9388,-1.939,-1.9422,-1.9421,-1.9421,-1.942,-1.953,-1.9534,-1.9537,0,0,0,0,0,0,0,0,0,0,0,0,0,-1.9088,-1.9091,-1.9276,-1.9277,-1.9279,-1.9387,-1.9388,-1.939,-1.9422,-1.9421,-1.9421,-1.942,-1.9529,-1.9533,-1.9537,0,0,0,0,0,0,0,0,0,0,0,0,0,-1.9181,-1.9092,-1.9275,-1.9308,-1.9312,-1.9387,-1.9389,-1.939,-1.9422,-1.9421,-1.942,-1.942,-1.9528,-1.9533,-1.9538,-1.9588,0,0,-1.9554,-1.9556,0,0,0,0,0,0,0,0,-1.9176,-1.9188,-1.9302,-1.9306,-1.931,-1.939,-1.9363,-1.9456,-1.9422,-1.938,-1.942,-1.9419,-1.9484,-1.9493,-1.9515,-1.9593,-1.9597,-1.9554,-1.9557,-1.956,-1.9561,0,0,0,0,0,0,0,-1.9169,-1.9183,-1.932,-1.9303,-1.9309,-1.9316,-1.9328,-1.9381,-1.9435,-1.9384,-1.9386,-1.9399,-1.9486,-1.951,-1.9518,-1.9599,-1.9554,-1.9559,-1.9562,-1.9564,-1.9724,-1.9725,0,0,0,0,0,0,-1.9158,-1.9178,-1.9316,-1.9323,-1.924,-1.932,-1.9333,-1.9365,-1.9435,-1.9445,-1.94,-1.94,-1.9502,-1.9512,-1.9522,-1.9586,-1.956,-1.9565,-1.9568,-1.9723,-1.9724,-1.9725,0,0,0,0,0,0,-1.9154,-1.917,-1.9312,-1.9251,-1.927,-1.9324,-1.9359,-1.9368,-1.9392,-1.9447,-1.9457,-1.9415,-1.9502,-1.9515,-1.9572,-1.959,-1.9567,-1.9572,-1.9721,-1.9723,-1.9725,-1.9713,0,0,0,0,0,0,-1.9148,-1.9168,-1.9188,-1.9252,-1.9273,-1.936,-1.936,-1.9371,-1.9401,-1.9403,-1.9464,-1.9473,-1.9502,-1.9564,-1.9577,-1.9597,-1.9576,-1.972,-1.9722,-1.9724,-1.9712,-1.9715,-1.9716,0,0,0,0,0,-1.9141,-1.918,-1.9189,-1.9206,-1.93,-1.9361,-1.9373,-1.9407,-1.9403,-1.9423,-1.9459,-1.9471,-1.9586,-1.9569,-1.9584,-1.9606,-1.9719,-1.9721,-1.9724,-1.9712,-1.9714,-1.9716,0,0,0,0,0,0,-1.9116,-1.9189,-1.92,-1.926,-1.9304,-1.9367,-1.9393,-1.9409,-1.9454,-1.9454,-1.9492,-1.9505,-1.956,-1.9588,-1.9569,-1.9659,-1.9653,-1.9658,-1.9638,-1.9641,-1.9643,-1.9635,-1.958,0,0,0,0,0,-1.9117,-1.9163,-1.9223,-1.927,-1.9292,-1.9339,-1.9367,-1.9389,-1.9436,-1.9455,-1.9494,-1.9538,-1.9585,-1.9614,-1.966,-1.9716,-1.973,-1.9739,-1.9741,-1.9742,-1.9747,-1.978,-1.9785,-1.9733,-1.9733,-1.9733,0,0,-1.9121,-1.9166,-1.9192,-1.9266,-1.9303,-1.9349,-1.9354,-1.9402,-1.9436,-1.9461,-1.9519,-1.9549,-1.9601,-1.9658,-1.9685,-1.9684,-1.9764,-1.9745,-1.9746,-1.975,-1.9783,-1.9788,-1.9792,-1.9735,-1.9735,-1.9735,0,0,-1.915,-1.9189,-1.9233,-1.9271,-1.9327,-1.9358,-1.9368,-1.9429,-1.9451,-1.9509,-1.9529,-1.9569,-1.9648,-1.9684,-1.9713,-1.9757,-1.977,-1.977,-1.9781,-1.9813,-1.9817,-1.9821,-1.9837,-1.9843,-1.9775,-1.9775,-1.9775,0,-1.9147,-1.9218,-1.9253,-1.9301,-1.9333,-1.936,-1.9405,-1.9439,-1.9506,-1.9528,-1.9525,-1.9625,-1.9662,-1.9729,-1.9739,-1.9761,-1.9775,-1.9764,-1.9814,-1.9818,-1.9822,-1.9838,-1.9844,-1.9774,-1.9774,-1.9774,-1.9774,0,-1.9211,-1.9259,-1.9288,-1.9355,-1.939,-1.9436,-1.9478,-1.9509,-1.9528,-1.9559,-1.9618,-1.9663,-1.9718,-1.9735,-1.9754,-1.9805,-1.9803,-1.9806,-1.9801,-1.9826,-1.9842,-1.9848,-1.9774,-1.9774,-1.9774,-1.9774,0,0,-1.9228,-1.9315,-1.9325,-1.9356,-1.9421,-1.9458,-1.9505,-1.9561,-1.9587,-1.9632,-1.9673,-1.9739,-1.9743,-1.9776,-1.9798,-1.9826,-1.9859,-1.9827,-1.9828,-1.9832,-1.992,-1.9917,-1.9924,-1.9868,-1.9869,-1.987,-1.9916,0,-1.9267,-1.9353,-1.9387,-1.9456,-1.9502,-1.9528,-1.9569,-1.9612,-1.9642,-1.9684,-1.9717,-1.9764,-1.9765,-1.9785,-1.9814,-1.9849,-1.9878,-1.9846,-1.9906,-1.9907,-1.9893,-1.9932,-1.993,-1.997,-1.9922,-1.9923,-1.9924,0,-1.9324,-1.9372,-1.9446,-1.9506,-1.9527,-1.9563,-1.9617,-1.9657,-1.9707,-1.9727,-1.9763,-1.9785,-1.9834,-1.9825,-1.9893,-1.9871,-1.9897,-1.9918,-1.9921,-1.9928,-1.9918,-1.9942,-1.9984,-1.999,-1.9934,-1.9933,-1.9932,0,-1.933,-1.9413,-1.9469,-1.9495,-1.9566,-1.959,-1.9621,-1.967,-1.9702,-1.9748,-1.9769,-1.9821,-1.9849,-1.9888,-1.9922,-1.9912,-1.9987,-1.9981,-2.0005,-2.0004,-2.0021,-2.0019,-2.0068,-2.0035,-2.0035,-2.0035,-2.0035,0,-1.9371,-1.9415,-1.9473,-1.9507,-1.9558,-1.9596,-1.9645,-1.9677,-1.9721,-1.9761,-1.9786,-1.9823,-1.9866,-1.9908,-1.9935,-1.9988,-2.0,-2.0017,-2.0024,-2.0016,-2.0014,-2.0034,-2.0033,-2.0037,-2.0036,-2.0036,-2.0036,0,-1.9387,-1.9427,-1.949,-1.9553,-1.9569,-1.9604,-1.9657,-1.9691,-1.9722,-1.9773,-1.9787,-1.9836,-1.9888,-1.9925,-1.9991,-2.0009,-2.0066,-2.0072,-2.005,-2.0054,-2.0076,-2.0074,-2.0141,-2.0152,-2.011,-2.0111,-2.0111,0,-1.9411,-1.9446,-1.9513,-1.9542,-1.9573,-1.962,-1.9653,-1.9692,-1.9725,-1.9785,-1.9811,-1.9865,-1.991,-1.999,-2.0031,-2.0082,-2.009,-2.011,-2.0098,-2.0089,-2.0092,-2.009,-2.0094,-2.0112,-2.0112,-2.0112,-2.0113,0,-1.9449,-1.9467,-1.9515,-1.9569,-1.9608,-1.9652,-1.9697,-1.9719,-1.9766,-1.9802,-1.9855,-1.989,-1.9959,-2.0011,-2.0066,-2.0096,-2.0113,-2.0116,-2.0125,-2.0117,-2.0103,-2.0112,-2.0056,-2.0115,-2.0114,-2.0114,-2.0114,-2.0114,-1.9471,-1.9504,-1.9556,-1.9608,-1.9646,-1.9687,-1.9723,-1.9759,-1.9805,-1.9865,-1.9884,-1.994,-1.9989,-2.0064,-2.0095,-2.0139,-2.0139,-2.015,-2.0154,-2.0156,-2.0157,-2.0095,-2.0149,-2.0149,-2.0149,-2.0149,-2.0149,0,-1.9511,-1.9547,-1.9594,-1.9657,-1.9697,-1.971,-1.976,-1.9793,-1.9842,-1.9887,-1.9931,-1.9993,-2.0045,-2.0089,-2.0143,-2.0169,-2.0178,-2.0182,-2.0181,-2.0188,-2.0153,-2.0141,-2.0174,-2.0174,-2.0174,-2.0174,-2.0174,-2.0174,-1.9537,-1.9595,-1.9619,-1.9695,-1.973,-1.9786,-1.9814,-1.9852,-1.9888,-1.9957,-2.0,-2.0029,-2.0074,-2.0131,-2.0179,-2.0191,-2.0209,-2.0212,-2.0226,-2.0193,-2.019,-2.0187,-2.0176,-2.0216,-2.0216,-2.0257,-2.0257,-2.0257]}]]